Temperature
18 18 18 18 18 18 18 18 18 18 18 18 18 18 18 18 18 18 18 18 18 18 18 18 17 17 17 17 17 17 17 17 17 16 16 16 16 16 16 16 16 16 16
18 18 18 18 18 18 18 18 18 18 18 18 18 18 18 18 18 18 18 18 18 18 18 18 18 17 17 17 17 17 17 17 17 17 16 16 16 16 16 16 16 16 16
18 18 18 18 18 18 18 18 18 18 18 18 18 18 18 18 18 18 18 18 18 18 17 17 17 17 17 17 17 17 17 17 17 17 17 16 16 16 16 16 16 16 16
18 18 18 18 18 18 18 18 18 18 18 18 18 18 18 18 18 18 18 18 18 18 17 17 17 17 17 17 17 17 17 17 17 17 17 17 16 16 16 16 16 16 16
19 18 18 18 18 18 18 18 18 18 18 18 18 18 18 18 18 18 18 18 18 18 18 17 17 17 17 17 17 17 17 17 17 17 17 17 16 16 16 16 16 16 16
19 18 18 18 18 18 18 18 18 18 18 18 18 18 18 18 18 18 18 18 18 18 18 18 17 17 17 17 17 17 17 17 17 17 17 17 17 16 16 16 16 16 16
18 18 18 18 18 18 18 18 18 18 18 18 18 18 18 18 18 18 18 18 18 18 18 18 18 17 17 17 17 17 17 17 17 17 17 17 17 17 16 16 16 16 16
18 18 18 18 18 18 18 18 18 18 18 18 18 18 18 18 18 18 18 18 18 18 18 18 18 17 18 17 17 17 17 17 17 17 17 17 17 17 16 16 16 16 16
18 18 18 18 18 18 18 18 18 18 18 18 18 18 18 18 18 18 18 18 18 18 18 18 18 17 18 17 17 17 17 17 17 17 17 17 17 16 16 16 16 16 16
18 18 18 18 18 18 18 18 18 18 18 18 18 18 18 17 17 18 18 18 18 18 18 18 18 18 17 17 17 17 17 17 17 17 16 16 16 16 16 16 16 16 16
18 18 18 18 18 18 18 18 18 18 18 18 18 18 17 17 17 17 17 18 18 18 18 18 18 17 17 17 17 17 17 17 17 17 16 16 16 16 16 16 16 16 16
18 18 18 18 18 18 18 18 18 17 17 17 17 17 17 17 17 17 17 17 17 17 17 17 17 17 17 17 17 17 17 17 17 16 16 16 16 16 16 16 16 16 16
18 18 18 18 18 18 18 18 18 17 17 17 17 17 17 17 17 17 17 17 17 17 17 17 17 17 17 17 17 17 16 17 16 16 16 16 16 16 16 16 16 15 15
18 18 18 18 18 18 18 18 17 17 17 17 17 17 17 17 17 17 17 17 16 16 17 16 17 16 16 16 16 16 16 16 16 16 16 16 16 16 15 15 15 15 15
18 18 18 18 18 17 17 17 17 17 17 17 17 17 17 17 17 17 17 17 16 16 16 16 16 16 16 16 16 16 16 16 16 16 15 15 15 15 15 15 15 15 15
17 17 17 17 17 17 17 17 17 17 17 17 17 17 17 17 16 16 17 16 16 16 16 16 16 16 16 15 16 15 15 15 15 15 15 15 15 15 14 14 14 14 14
17 17 17 17 17 17 17 17 17 17 17 17 16 16 16 16 16 16 16 16 16 16 16 15 15 15 15 15 15 15 15 14 14 14 14 14 14 14 14 14 14 14 13
17 17 17 17 17 16 16 16 16 16 16 16 16 16 16 16 16 16 16 16 15 15 15 15 15 15 15 15 15 14 14 14 14 14 14 14 14 13 13 13 13 13 13
17 17 16 16 16 16 16 16 16 16 16 16 16 16 16 16 16 16 15 15 15 15 15 15 15 14 14 14 14 14 14 14 13 13 13 13 13 13 13 12 12 12 12
16 16 16 16 16 16 16 16 16 16 15 15 15 15 15 15 15 15 15 15 15 15 14 14 14 14 14 14 13 13 13 13 13 13 12 12 12 12 12 12 12 11 11
16 16 16 15 15 15 15 15 15 15 15 15 15 15 15 15 15 15 14 14 14 14 14 14 14 13 13 13 13 13 12 12 12 12 12 12 11 11 11 11 11 11 11
16 15 15 15 15 15 15 15 15 15 15 15 15 14 14 14 14 14 14 14 14 14 13 13 13 13 12 12 12 12 12 12 11 11 11 11 11 11 10 10 10 10 10
15 15 15 15 15 14 14 14 14 14 14 14 14 14 13 13 13 13 13 13 13 13 13 13 12 12 12 12 12 11 11 11 11 11 11 10 10 10 10 10 10 9 9
15 15 14 14 14 14 14 14 14 14 14 14 13 13 13 13 13 13 13 12 12 12 12 12 12 11 11 11 11 11 11 11 10 10 10 10 10 9 9 9 9 9 9
14 14 14 14 14 13 13 14 14 14 13 13 13 12 12 12 12 12 12 12 12 11 11 11 11 11 11 10 10 10 10 10 10 10 9 9 9 9 9 9 8 8 8
14 14 13 13 13 13 13 13 13 13 13 12 12 12 12 12 11 11 11 11 11 11 11 10 10 10 10 10 10 10 10 10 9 9 9 8 8 8 8 8 8 8 8
Wind_Speed
5 6 6 7 7 7 6 5 5 4 4 4 4 5 6 9 11 12 12 15 16 16 15 15 14 13 13 12 12 12 12 11 11 11 11 11 10 10 10 10 9 9 9
8 6 5 5 6 8 8 6 5 3 3 2 2 4 7 9 10 12 12 14 16 16 16 16 15 15 14 14 13 13 13 12 12 12 12 12 11 11 11 10 10 10 10
9 7 4 4 6 7 7 5 3 3 2 1 2 2 4 7 9 11 12 13 14 16 17 17 16 15 15 15 14 14 14 14 14 13 13 13 13 12 12 12 11 11 11
10 7 4 4 6 5 4 3 2 2 1 1 1 2 2 4 7 9 11 12 13 13 16 18 17 17 16 16 15 15 15 15 15 15 14 14 14 14 13 13 13 13 13
9 6 4 4 5 3 2 3 2 3 2 2 2 2 2 2 4 8 9 11 13 13 14 16 18 18 17 17 17 16 16 16 16 16 16 15 15 15 15 15 14 14 14
9 7 4 4 4 2 2 2 2 2 3 3 3 2 3 3 3 4 7 9 11 13 14 14 15 16 18 18 18 18 18 18 17 17 17 16 16 16 16 16 16 16 16
8 6 3 3 3 3 4 4 2 2 2 2 0 2 3 3 4 5 5 5 7 11 12 13 12 12 13 17 18 18 18 18 18 18 17 17 17 17 17 17 17 17 16
7 6 4 4 4 3 4 3 3 2 2 2 3 1 3 4 3 4 4 5 6 7 8 11 12 13 13 13 15 18 19 19 18 18 19 19 19 19 18 18 18 18 18
8 7 6 5 4 4 4 4 4 4 3 2 3 4 3 3 3 3 3 4 4 4 5 8 12 13 13 12 13 17 20 21 20 19 19 19 19 19 18 18 18 18 19
6 7 5 5 4 4 4 4 4 4 4 3 2 3 4 4 2 2 3 2 3 4 4 6 6 9 11 11 12 14 17 20 21 20 19 19 19 18 18 18 18 17 17
4 5 5 4 4 4 4 4 3 4 3 4 3 2 2 2 3 3 3 3 2 2 2 3 3 5 9 10 10 12 14 17 19 19 19 18 18 18 18 18 18 18 17
2 3 4 3 3 3 4 4 4 4 4 4 4 3 3 3 3 3 4 4 3 2 2 2 2 2 5 7 9 9 11 13 15 17 18 18 18 18 18 18 18 18 17
1 2 2 2 2 3 3 3 4 4 3 3 4 3 3 4 3 3 3 3 2 2 1 1 1 1 3 4 5 6 8 10 11 13 14 15 16 16 16 16 16 16 16
2 2 2 2 2 2 2 2 2 3 2 2 3 3 3 3 3 4 4 3 2 2 1 2 1 1 1 1 2 3 4 7 7 9 10 11 11 10 11 11 12 13 12
1 1 1 1 1 0 0 0 1 1 1 1 2 2 2 2 2 3 3 4 4 2 3 2 1 1 0 0 1 1 1 2 3 5 6 7 6 6 6 6 7 8 8
0 1 1 1 1 0 0 0 0 1 1 1 1 1 1 1 1 1 2 2 3 3 3 2 1 1 0 1 1 1 2 2 2 1 2 4 5 5 5 4 4 5 5
1 1 1 1 1 1 0 0 0 0 1 1 1 0 1 1 0 0 0 1 1 2 2 1 0 1 1 1 2 2 2 3 3 3 2 3 4 4 4 3 2 2 3
2 1 1 2 1 1 1 1 1 1 1 1 1 1 2 1 1 1 1 1 1 1 2 0 1 1 1 1 1 2 3 3 3 3 3 4 5 5 4 4 3 2 2
3 3 3 3 2 2 2 1 1 1 1 1 1 1 2 2 2 1 1 1 1 2 2 2 1 1 1 1 2 2 3 3 3 4 4 4 5 5 4 4 3 3 3
4 4 4 3 3 3 3 2 2 2 2 2 2 2 3 3 2 2 2 2 3 3 3 3 1 1 1 1 1 1 2 2 3 4 5 5 5 5 4 3 3 3 3
4 4 5 5 4 4 3 3 3 3 3 3 4 4 5 6 7 5 4 3 4 3 3 3 2 2 2 1 1 0 2 2 3 3 3 3 3 3 4 4 4 4 5
5 5 6 6 6 5 6 6 5 4 4 4 4 4 5 7 8 10 11 9 7 5 3 3 2 2 1 1 1 1 2 2 1 2 2 3 2 2 2 3 5 6 6
6 6 6 6 7 7 8 8 9 6 6 5 5 5 5 6 7 6 9 11 10 10 6 4 4 2 1 1 1 2 2 2 1 1 2 2 3 2 2 4 5 6 6
6 6 6 6 6 7 8 9 10 8 7 6 6 5 6 5 6 6 7 7 7 7 6 5 4 2 2 2 2 2 2 2 2 2 2 2 2 1 2 3 5 5 5
6 6 5 6 6 6 8 8 9 6 7 7 7 7 6 6 7 8 7 7 7 6 9 12 11 11 11 10 7 4 4 4 2 2 3 2 1 1 2 2 4 5 5
7 7 7 7 7 7 8 9 8 5 7 6 6 7 9 8 8 8 6 6 6 4 5 7 8 10 10 11 10 5 3 3 2 1 2 2 1 1 2 2 3 4 3
Wind_Direction
172 177 190 196 202 204 206 216 229 234 237 238 220 183 168 167 169 173 180 184 184 184 184 185 187 188 188 187 188 188 189 190 189 189 189 189 188 189 188 187 185 186 185
178 178 186 198 208 211 211 213 218 221 233 216 199 177 170 170 175 177 184 191 193 192 191 192 194 196 196 197 197 198 199 199 197 198 198 198 198 198 198 198 197 196 196
179 178 179 190 206 208 205 204 214 208 215 201 216 206 177 178 179 186 189 193 198 202 202 201 202 202 203 203 204 205 206 207 205 205 205 205 205 205 205 206 206 205 205
178 171 176 196 207 202 190 177 189 193 228 222 228 248 209 189 186 193 193 197 201 206 211 211 209 208 209 208 209 211 211 212 211 212 212 212 213 213 213 213 214 213 212
179 173 183 205 206 187 180 196 189 182 204 231 237 239 232 212 204 199 198 204 207 211 210 215 215 215 215 215 215 216 217 217 217 217 217 218 219 220 220 219 219 219 220
182 177 185 206 197 175 189 194 201 202 199 212 244 258 247 231 220 212 208 207 212 217 213 213 216 220 223 222 221 220 221 221 220 220 221 221 221 222 222 223 223 224 225
188 183 186 195 190 195 204 201 199 217 229 187 130 313 300 266 244 233 218 207 212 214 210 211 213 216 222 225 226 224 224 224 223 221 221 222 223 223 224 225 225 226 225
197 200 192 201 202 201 207 207 199 205 233 181 160 161 317 325 297 246 222 217 219 213 209 212 211 215 217 220 227 228 228 228 227 225 225 224 225 226 227 227 227 228 228
203 206 202 203 206 198 208 218 205 197 221 229 186 167 184 241 296 312 257 230 216 210 210 210 213 219 217 218 226 231 229 229 230 231 229 227 227 228 228 228 230 231 231
206 205 203 204 208 203 209 223 211 201 198 220 228 215 201 185 200 291 310 285 247 229 221 215 210 210 213 216 223 228 229 229 230 231 232 230 229 230 232 233 234 234 234
215 210 211 205 206 209 214 219 219 212 206 208 210 215 219 220 206 206 262 296 314 273 237 219 199 200 210 216 221 227 227 227 229 230 231 230 229 230 232 235 237 238 238
237 230 209 210 212 212 212 212 221 220 219 217 216 208 199 204 211 202 227 246 258 278 278 260 214 192 204 210 216 219 221 223 226 229 231 231 230 230 232 234 237 240 240
233 241 218 214 217 218 206 205 218 222 217 215 218 223 218 222 210 197 204 234 247 276 305 329 300 229 230 215 213 223 227 225 223 227 231 233 232 232 231 232 235 237 239
217 231 216 214 227 220 214 208 228 215 201 217 232 226 225 232 216 208 201 197 234 280 285 270 329 348 273 236 225 221 237 235 222 225 230 231 230 231 230 228 229 229 231
195 212 195 191 200 217 244 223 234 204 194 218 242 241 234 245 229 224 206 192 195 236 277 263 254 288 329 28 303 170 209 252 233 231 227 219 218 225 231 233 231 230 231
46 76 72 99 115 182 264 216 220 232 172 248 236 232 268 275 260 242 210 192 182 193 231 250 237 279 354 17 321 152 147 124 100 153 197 194 194 202 209 216 224 223 223
73 84 77 68 70 50 286 132 293 57 95 354 355 27 309 296 296 355 100 152 154 159 193 291 329 358 33 26 40 82 99 97 86 95 134 145 151 160 165 173 191 206 207
64 64 57 61 63 55 75 113 135 97 92 47 7 22 339 353 47 48 85 97 118 129 147 189 342 6 13 18 57 65 72 79 88 84 105 119 125 128 125 120 120 118 121
64 53 55 60 48 43 59 95 121 108 100 84 55 49 360 26 40 50 80 90 91 84 97 120 25 5 5 25 47 51 61 53 65 65 75 81 99 109 107 110 109 103 96
67 55 47 44 40 44 48 53 80 86 75 57 52 55 41 42 50 59 75 78 91 84 84 95 75 34 10 345 60 72 57 35 41 52 61 65 70 74 73 89 102 101 95
67 54 51 43 37 48 54 66 83 88 80 65 49 49 58 62 58 63 76 78 87 88 85 85 74 50 28 29 23 33 90 61 38 38 45 49 56 50 40 43 61 74 72
68 62 55 52 49 48 53 68 87 81 76 75 66 55 60 56 57 63 69 73 80 92 97 86 65 60 8 1 28 75 103 78 30 355 45 25 42 39 25 43 58 63 61
75 67 59 60 57 51 61 69 76 81 76 71 69 64 65 58 58 63 66 66 62 63 77 101 86 60 39 352 79 77 84 90 98 319 67 34 21 22 12 38 61 62 59
81 74 63 60 63 53 61 74 79 74 72 66 64 68 74 62 65 73 74 67 59 52 54 67 78 54 53 54 105 122 122 91 51 25 63 61 7 1 9 24 40 53 48
84 74 67 62 63 47 56 73 77 76 71 60 55 58 68 68 65 76 76 71 58 41 52 60 58 54 54 55 64 75 69 79 52 360 16 67 13 4 1 353 6 24 26
89 81 68 58 64 57 57 72 78 82 76 65 53 50 58 69 69 75 80 82 75 50 49 47 43 43 44 46 51 63 85 92 82 11 344 40 19 35 3 333 341 351 354
Height
1571 1571 1572 1573 1574 1574 1575 1576 1576 1577 1577 1577 1578 1578 1578 1578 1578 1579 1579 1579 1579 1579 1580 1580 1581 1581 1582 1582 1583 1583 1584 1584 1585 1585 1586 1587 1587 1588 1588 1589 1590 1590 1591
1571 1571 1572 1573 1574 1574 1575 1576 1576 1577 1577 1577 1577 1578 1578 1578 1578 1578 1578 1579 1579 1579 1579 1580 1580 1580 1581 1581 1582 1582 1583 1583 1584 1585 1585 1586 1586 1587 1587 1588 1589 1589 1590
1571 1571 1572 1573 1573 1574 1575 1575 1575 1576 1576 1577 1577 1577 1577 1578 1578 1578 1578 1578 1578 1578 1579 1579 1579 1580 1580 1580 1581 1581 1582 1582 1583 1583 1584 1584 1585 1586 1586 1587 1587 1588 1588
1570 1571 1571 1572 1573 1573 1574 1574 1575 1575 1576 1576 1576 1576 1576 1577 1577 1577 1577 1577 1577 1577 1578 1578 1578 1579 1579 1579 1580 1580 1580 1581 1581 1582 1582 1583 1583 1584 1585 1585 1586 1586 1587
1569 1570 1571 1572 1572 1572 1573 1573 1574 1574 1574 1574 1575 1575 1575 1575 1575 1575 1575 1575 1575 1576 1576 1577 1577 1577 1577 1578 1578 1578 1578 1579 1579 1580 1580 1581 1581 1582 1582 1583 1583 1584 1584
1568 1569 1570 1571 1571 1571 1572 1572 1572 1572 1572 1573 1573 1573 1573 1573 1573 1573 1573 1573 1573 1574 1574 1574 1575 1575 1575 1576 1576 1576 1576 1576 1577 1577 1578 1578 1579 1579 1580 1580 1581 1581 1582
1567 1568 1568 1569 1569 1569 1570 1570 1570 1570 1571 1571 1571 1571 1571 1571 1571 1571 1571 1571 1571 1571 1571 1572 1572 1572 1573 1573 1573 1573 1574 1574 1574 1574 1575 1575 1576 1576 1577 1577 1578 1578 1579
1566 1566 1567 1567 1567 1567 1568 1568 1568 1568 1568 1569 1569 1569 1569 1569 1568 1568 1568 1568 1568 1568 1568 1568 1569 1569 1570 1570 1570 1570 1570 1571 1571 1571 1572 1572 1573 1573 1573 1574 1574 1575 1575
1564 1564 1565 1564 1565 1565 1565 1566 1566 1566 1566 1567 1567 1568 1567 1566 1566 1566 1565 1565 1566 1566 1566 1566 1566 1566 1566 1566 1567 1567 1567 1567 1568 1568 1568 1569 1569 1570 1570 1571 1571 1571 1571
1562 1562 1562 1562 1562 1562 1563 1563 1563 1563 1564 1564 1564 1565 1566 1565 1565 1563 1563 1563 1563 1563 1563 1563 1563 1563 1563 1563 1563 1563 1564 1564 1564 1564 1564 1565 1565 1566 1566 1567 1567 1567 1568
1559 1560 1559 1560 1560 1559 1559 1560 1560 1560 1561 1561 1561 1561 1562 1562 1562 1562 1560 1560 1560 1560 1560 1560 1560 1560 1560 1560 1559 1560 1560 1560 1560 1560 1560 1561 1561 1561 1562 1562 1563 1563 1563
1557 1557 1556 1557 1557 1556 1556 1556 1557 1557 1558 1558 1558 1558 1558 1558 1558 1558 1557 1557 1557 1557 1558 1557 1557 1557 1556 1556 1556 1556 1556 1556 1556 1556 1556 1556 1557 1557 1557 1558 1558 1558 1558
1554 1554 1554 1554 1554 1553 1553 1553 1553 1553 1553 1554 1554 1554 1554 1554 1555 1555 1555 1554 1554 1554 1554 1554 1554 1554 1553 1553 1553 1553 1552 1552 1551 1551 1551 1551 1552 1552 1553 1553 1553 1553 1554
1551 1551 1551 1551 1551 1551 1550 1550 1549 1548 1549 1550 1550 1550 1550 1550 1551 1551 1551 1551 1551 1550 1550 1550 1550 1550 1550 1550 1549 1549 1548 1547 1547 1547 1546 1547 1547 1547 1548 1548 1548 1548 1548
1549 1549 1548 1548 1547 1547 1548 1547 1547 1546 1546 1547 1547 1547 1547 1547 1547 1547 1547 1547 1548 1547 1546 1547 1547 1547 1547 1546 1545 1545 1544 1543 1542 1542 1542 1542 1542 1542 1542 1543 1543 1543 1543
1546 1546 1546 1545 1545 1545 1545 1545 1544 1544 1544 1544 1544 1544 1544 1544 1543 1543 1543 1543 1544 1544 1543 1544 1544 1544 1543 1543 1542 1541 1540 1540 1539 1539 1538 1538 1538 1538 1538 1538 1538 1538 1538
1544 1544 1544 1543 1542 1542 1542 1542 1542 1542 1542 1542 1542 1542 1541 1541 1541 1541 1540 1541 1541 1541 1541 1541 1541 1541 1541 1540 1539 1539 1538 1537 1536 1536 1535 1534 1534 1534 1533 1533 1533 1534 1533
1542 1542 1542 1541 1540 1540 1540 1540 1540 1540 1540 1540 1540 1540 1540 1539 1539 1538 1538 1538 1539 1539 1539 1539 1539 1539 1538 1538 1537 1536 1536 1535 1534 1533 1532 1532 1531 1531 1530 1530 1530 1530 1529
1541 1541 1540 1540 1539 1539 1539 1539 1539 1539 1538 1538 1539 1538 1538 1538 1537 1537 1537 1537 1537 1537 1537 1537 1537 1537 1536 1536 1535 1535 1534 1533 1532 1532 1531 1530 1529 1528 1528 1528 1527 1527 1526
1540 1540 1540 1539 1539 1538 1538 1538 1538 1538 1537 1537 1537 1537 1537 1536 1536 1536 1535 1535 1535 1535 1535 1535 1535 1535 1535 1534 1534 1533 1532 1532 1531 1530 1530 1529 1528 1528 1527 1526 1526 1525 1524
1540 1539 1539 1538 1538 1537 1537 1536 1536 1536 1536 1536 1536 1536 1536 1536 1535 1535 1535 1534 1534 1534 1534 1534 1534 1534 1533 1532 1532 1532 1531 1530 1530 1530 1529 1528 1528 1527 1526 1525 1525 1524 1523
1540 1539 1539 1538 1537 1537 1537 1536 1536 1536 1536 1536 1536 1536 1536 1536 1536 1535 1534 1534 1534 1534 1533 1533 1533 1532 1532 1532 1531 1531 1530 1529 1529 1530 1529 1528 1528 1526 1526 1525 1524 1523 1522
1540 1540 1539 1538 1538 1537 1537 1537 1536 1536 1536 1536 1536 1536 1536 1536 1536 1536 1534 1534 1534 1534 1534 1534 1533 1532 1532 1531 1531 1530 1530 1529 1528 1528 1528 1527 1527 1526 1526 1525 1524 1523 1522
1540 1540 1540 1539 1539 1539 1538 1538 1537 1537 1536 1537 1537 1537 1537 1537 1537 1537 1536 1535 1534 1534 1533 1533 1533 1532 1532 1531 1531 1530 1530 1529 1529 1528 1528 1527 1527 1526 1526 1526 1525 1523 1522
1541 1541 1541 1541 1540 1540 1540 1539 1539 1538 1538 1537 1538 1538 1538 1538 1538 1538 1537 1536 1535 1535 1535 1534 1534 1533 1532 1532 1531 1530 1529 1529 1528 1528 1527 1527 1526 1526 1526 1525 1525 1523 1522
1542 1542 1542 1542 1542 1541 1541 1541 1541 1540 1539 1539 1539 1539 1539 1539 1539 1539 1538 1537 1536 1536 1536 1535 1534 1534 1533 1532 1531 1531 1530 1529 1528 1528 1527 1527 1526 1526 1525 1525 1524 1523 1522